Zurück zum Katalog

COSMOS 1305

AktivMilitärHEO
NORAD 12818·PAYLOAD·🇷🇺 Russia

Gestartet Sep 11, 1981 von Plesetsk Cosmodrome

Loading…

Nächste Überflüge (nächste 24 Stunden)

TLE

AktuellSource: Space-Track

Epoche: Sep 14, 2026, 02:08 UTC

1 12818U 81088A   26257.08954555  .00000038  00000-0  19214-3 0  9999
2 12818  62.7849 302.5336 4897754 273.4553  34.0533  5.46291795897610

Verfolge COSMOS 1305 in Echtzeit mit AllMySat

Download on the App Store